Corpus Christi Jet Center

SKYE FBO - AIRPORT SERVICES
McCampbell-Porter Airport KTFP
Call Us 24/7: (361) 758-2000
KTFP - McCampbell-Porter Airport
Updated: Thu, 27-Apr-2017 7:15pm PDT
Overcast
Overcast
 Wind from E
Wind: E 6 mph , 9 km/h
Temperature: 77°F , 25°C
Dew Point: 70°F , 21°C
Humidity: 79%
Barometer: 29.66 inHg , 1004.4 hPa
Clouds: Overcast
Visibility: 10 miles , 16 km
Cloud details: Overcast 1700 ft
2017/04/28 02:15 KTFP 280215Z AUTO 10005KT 10SM OVC017 25/21 A2966 RMK AO2 T02450211

Location

Skye FBO - Airport Services
McCampbell-Porter Airport KTFP
3141 FM 3512
Aransas Pass, TX 78336-9728
(361) 758-2000
2 miles N of Ingleside, TX
Only 15 min from downtown Corpus Christi 2 miles N of Ingleside, Texas and only 15 minutes from downtown Corpus Christi, Texas

(click to enlarge)

Skyview Aviation BBB Business Review

Flight Training & Testing

Skyview Aviation
www.skyviewtexas.com


Aircraft Services

image Experienced Line Service
Full Service Fueling - 100LL, Jet A (w/Prist)
Oil - Piston / Turbine Engine
Hangar Space (call for availability)
Cleaning
Maintenance
Tie Downs
APU - Fox Cart
Towing

Crew & Passenger Services

Flight Planning
Weather
Crew Cars
Enterprise Rental Cars
Catering
Newspapers
Concierge
WiFi
Baggage & Cargo Handling
Ice/Coffee
image

Management Services

image Individualized turnkey solutions for your general aviation needs